METEOR 1-10 DEB

Satellite information

Favourite Embed

Satellite Type and Status

DEBRISIN ORBIT

Key statistics

Satellite METEOR 1-10 DEB at a glance.

Uptime

19610

Days in orbit

Revolutions

≈ 14.8

Per day

Orbit

LEO

Low Earth Orbit

Inclination

81.2

Latest

Satellite identification and parameters

Extended collection of information and parameters for METEOR 1-10 DEB.

Object identification

Identified? True

Debris? True

Object name: METEOR 1-10 DEB

International designator: 1971-120C

Object number (NORAD): 8826

Object ID (CCSDS): 8826

Country: COMMONWEALTH OF INDEPENDENT STATES (CIS)

Current information (Y/N): Y

RCS size: MEDIUM

Orbital parameters

Period: 97.279 minutes

Inclination: 81.2265 deg

SMA: 7006.593 km

Apoapsis: 634.999 km

Periapsis: 621.916 km

RAAN: 252.0577 deg

Eccentricy: 0.00093361

Argument of periapsis: 281.949 deg

Mean anomaly: 78.0673 deg

Mean motion: 14.80275189 rev/day

Mean motion (dot): 0.00016454 rev/day2

B* drag term: 0.0021543136 1/REarth

Two-line elements (TLE)

Creation date: Sept. 6, 2025, 2:09 a.m.

Reference frame: TEME

Reference center: EARTH

Epoch: Sept. 5, 2025, 6:12 p.m. UTC

TLE line 0: 0 METEOR 1-10 DEB

TLE line 1: 1 08826U 71120C 25248.75897019 .00016454 00000-0 21543-2 0 9999

TLE line 2: 2 08826 81.2265 252.0577 0009336 281.9490 78.0673 14.80275189808172

Live tracking on map

Real-time ground track for satellite METEOR 1-10 DEB.

In-orbit conjunctions

A list of the most updated potential collisions computed for object METEOR 1-10 DEB.

Target Orbit TCA Probability of collision Miss distance Type
CZ-6A DEB LEO 2024-12-10 11:15:04 0.0004452969 835.0 (m) DEBRIS

Associated space launch

The Meteor-1 series was the first series of Soviet meteorological satellites.

METEOR 1-10 DEB was lifted into orbit during the mission ‘Vostok 8A92M | Meteor-1 10 (18L)’, on board a Vostok 8A92M space rocket.

The launch took place on Dec. 29, 1971, 10:50 a.m. from 41/1.

For more information about the launch, click the button.

Launch to space Vostok 8A92M | Meteor-1 10 (18L)
Vostok 8A92M | Meteor-1 10 (18L)

Agency: N/A

Status: Launch Successful

Launch date: Dec. 29, 1971, 10:50 a.m. UTC

Rocket: Vostok 8A92M

Launch pad: 41/1

Location: Plesetsk Cosmodrome, Russian Federation

...

Latest news about this satellite

There are no fresh news available about this satellite. Check back as we update our databases every day.


Newsletter sign-up

Weekly statistics, charts and insights to help you stay on top of the space industry.